When you browse on this site, cookies collect data to enhance your experience and personalize the content and advertising you see.
Visit our Privacy Policy to learn more. By continuing to use the site, you agree to this use of cookies and data.
  • en Suisse
  • Liste des pays
  • À 7 jours
  • Température de l'eau
  • Carte satellitaire
  • Carte météo
  • Widgets météo
  • user-avatar
    Se connecter

    Météo par heure à Kazinki

    Ce jour, 25 Juin, Mardi

    Heure Température Précipitation Vent Pression Humidité
    00:00 +16°C° 0 mm 3 m/s 747 mmHg 80%
    01:00 +14°C° 0 mm 3 m/s 747 mmHg 79%
    02:00 +15°C° 0 mm 2 m/s 748 mmHg 78%
    03:00 +14°C° 0 mm 2 m/s 748 mmHg 77%
    04:00 +15°C° 0 mm 2 m/s 748 mmHg 78%
    05:00 +14°C° 0 mm 3 m/s 749 mmHg 80%
    06:00 +14°C° 0 mm 3 m/s 749 mmHg 81%
    07:00 +16°C° 0 mm 3 m/s 749 mmHg 76%
    08:00 +17°C° 0 mm 4 m/s 750 mmHg 71%
    09:00 +19°C° 0 mm 4 m/s 750 mmHg 67%
    10:00 +20°C° 0 mm 4 m/s 750 mmHg 63%
    11:00 +21°C° 0 mm 4 m/s 750 mmHg 59%
    12:00 +21°C° 0 mm 4 m/s 750 mmHg 55%
    13:00 +21°C° 0.1 mm 4 m/s 750 mmHg 56%
    14:00 +22°C° 0.1 mm 4 m/s 750 mmHg 57%
    15:00 +22°C° 0.1 mm 5 m/s 750 mmHg 58%
    16:00 +21°C° 0 mm 4 m/s 750 mmHg 61%
    17:00 +21°C° 0 mm 4 m/s 750 mmHg 63%
    18:00 +20°C° 0 mm 3 m/s 750 mmHg 66%
    19:00 +19°C° 0 mm 3 m/s 750 mmHg 68%
    20:00 +17°C° 0 mm 3 m/s 750 mmHg 69%
    21:00 +16°C° 0 mm 2 m/s 750 mmHg 71%
    22:00 +15°C° 0 mm 2 m/s 750 mmHg 71%
    23:00 +14°C° 0 mm 2 m/s 750 mmHg 72%

    Demain, 26 Juin, Mercredi

    Heure Température Précipitation Vent Pression Humidité
    00:00 +14°C° 0 mm 1 m/s 750 mmHg 72%
    01:00 +13°C° 0 mm 1 m/s 750 mmHg 72%
    02:00 +13°C° 0 mm 1 m/s 750 mmHg 73%
    03:00 +13°C° 0 mm 1 m/s 751 mmHg 74%
    04:00 +13°C° 0 mm 1 m/s 750 mmHg 75%
    05:00 +14°C° 0 mm 1 m/s 750 mmHg 77%
    06:00 +14°C° 0 mm 2 m/s 750 mmHg 79%
    07:00 +16°C° 0 mm 2 m/s 750 mmHg 74%
    08:00 +17°C° 0 mm 2 m/s 750 mmHg 70%
    09:00 +19°C° 0 mm 2 m/s 750 mmHg 65%
    10:00 +20°C° 0 mm 2 m/s 749 mmHg 61%
    11:00 +21°C° 0 mm 2 m/s 749 mmHg 57%
    12:00 +23°C° 0 mm 2 m/s 749 mmHg 53%
    13:00 +23°C° 0 mm 2 m/s 748 mmHg 53%
    14:00 +22°C° 0 mm 3 m/s 748 mmHg 54%
    15:00 +22°C° 0 mm 3 m/s 748 mmHg 55%
    16:00 +21°C° 0.2 mm 2 m/s 747 mmHg 62%
    17:00 +21°C° 0.2 mm 2 m/s 747 mmHg 69%
    18:00 +21°C° 0.2 mm 1 m/s 746 mmHg 77%
    19:00 +20°C° 0 mm 1 m/s 746 mmHg 78%
    20:00 +19°C° 0 mm 1 m/s 745 mmHg 79%
    21:00 +18°C° 0 mm 1 m/s 745 mmHg 81%
    22:00 +17°C° 0 mm 2 m/s 744 mmHg 83%
    23:00 +16°C° 0 mm 2 m/s 744 mmHg 86%

    Après-demain, 27 Juin, Jeudi

    Heure Température Précipitation Vent Pression Humidité
    00:00 +16°C° 0 mm 2 m/s 743 mmHg 88%
    01:00 +16°C° 0 mm 3 m/s 742 mmHg 89%
    02:00 +16°C° 0 mm 3 m/s 742 mmHg 90%
    03:00 +14°C° 0 mm 4 m/s 741 mmHg 91%
    04:00 +14°C° 0.2 mm 4 m/s 740 mmHg 91%
    05:00 +15°C° 0.2 mm 4 m/s 739 mmHg 91%
    06:00 +15°C° 0.2 mm 5 m/s 738 mmHg 91%
    07:00 +15°C° 2.9 mm 5 m/s 738 mmHg 93%
    08:00 +15°C° 2.9 mm 6 m/s 737 mmHg 94%
    09:00 +15°C° 2.9 mm 7 m/s 736 mmHg 96%
    10:00 +16°C° 1.3 mm 6 m/s 735 mmHg 95%
    11:00 +17°C° 1.3 mm 6 m/s 735 mmHg 95%
    12:00 +19°C° 1.3 mm 6 m/s 734 mmHg 94%
    13:00 +19°C° 1.9 mm 6 m/s 733 mmHg 94%
    14:00 +18°C° 1.9 mm 7 m/s 733 mmHg 94%
    15:00 +20°C° 1.9 mm 7 m/s 732 mmHg 94%
    16:00 +20°C° 0.5 mm 7 m/s 731 mmHg 92%
    17:00 +20°C° 0.5 mm 7 m/s 731 mmHg 91%
    18:00 +21°C° 0.5 mm 6 m/s 730 mmHg 89%
    19:00 +20°C° 0.8 mm 6 m/s 729 mmHg 91%
    20:00 +20°C° 0.8 mm 6 m/s 729 mmHg 92%
    21:00 +19°C° 0.8 mm 6 m/s 728 mmHg 94%
    22:00 +19°C° 3.8 mm 5 m/s 727 mmHg 95%
    23:00 +19°C° 3.8 mm 3 m/s 726 mmHg 95%

    28 Juin, Vendredi

    Heure Température Précipitation Vent Pression Humidité
    00:00 +18°C° 3.8 mm 2 m/s 726 mmHg 96%
    01:00 +18°C° 0.1 mm 3 m/s 725 mmHg 96%
    02:00 +18°C° 0.1 mm 4 m/s 725 mmHg 96%
    03:00 +16°C° 0.1 mm 5 m/s 725 mmHg 96%
    04:00 +16°C° 0 mm 5 m/s 725 mmHg 95%
    05:00 +15°C° 0 mm 6 m/s 725 mmHg 94%
    06:00 +15°C° 0 mm 6 m/s 724 mmHg 93%
    07:00 +15°C° 0 mm 6 m/s 724 mmHg 90%
    08:00 +15°C° 0 mm 6 m/s 724 mmHg 87%
    09:00 +16°C° 0 mm 7 m/s 724 mmHg 84%
    10:00 +15°C° 0.1 mm 7 m/s 724 mmHg 84%
    11:00 +15°C° 0.1 mm 7 m/s 724 mmHg 83%
    12:00 +15°C° 0.1 mm 7 m/s 724 mmHg 83%
    13:00 +16°C° 0.1 mm 7 m/s 724 mmHg 82%
    14:00 +16°C° 0.1 mm 7 m/s 724 mmHg 80%
    15:00 +16°C° 0.1 mm 6 m/s 724 mmHg 79%
    16:00 +15°C° 0.4 mm 6 m/s 724 mmHg 83%
    17:00 +15°C° 0.4 mm 6 m/s 724 mmHg 87%
    18:00 +14°C° 0.4 mm 6 m/s 724 mmHg 91%
    19:00 +13°C° 0.1 mm 6 m/s 724 mmHg 92%
    20:00 +13°C° 0.1 mm 5 m/s 724 mmHg 93%
    21:00 +12°C° 0.1 mm 5 m/s 724 mmHg 93%
    22:00 +12°C° 0.1 mm 5 m/s 724 mmHg 94%
    23:00 +10°C° 0.1 mm 5 m/s 724 mmHg 94%

    29 Juin, Samedi

    Heure Température Précipitation Vent Pression Humidité
    00:00 +10°C° 0.1 mm 5 m/s 724 mmHg 94%
    01:00 +10°C° 0.6 mm 5 m/s 724 mmHg 94%
    02:00 +10°C° 0.6 mm 6 m/s 724 mmHg 95%
    03:00 +10°C° 0.6 mm 6 m/s 724 mmHg 95%
    04:00 +10°C° 0.3 mm 6 m/s 724 mmHg 95%
    05:00 +10°C° 0.3 mm 5 m/s 725 mmHg 95%
    06:00 +10°C° 0.3 mm 5 m/s 725 mmHg 95%
    07:00 +10°C° 0.3 mm 6 m/s 725 mmHg 94%
    08:00 +10°C° 0.3 mm 6 m/s 726 mmHg 94%
    09:00 +10°C° 0.3 mm 6 m/s 726 mmHg 94%
    10:00 +10°C° 0.3 mm 6 m/s 727 mmHg 93%
    11:00 +10°C° 0.3 mm 6 m/s 728 mmHg 93%
    12:00 +10°C° 0.3 mm 6 m/s 729 mmHg 92%
    13:00 +10°C° 0.2 mm 6 m/s 730 mmHg 92%
    14:00 +10°C° 0.2 mm 6 m/s 730 mmHg 92%
    15:00 +9°C° 0.2 mm 6 m/s 731 mmHg 92%
    16:00 +9°C° 0.1 mm 6 m/s 731 mmHg 91%
    17:00 +10°C° 0.1 mm 5 m/s 732 mmHg 89%
    18:00 +10°C° 0.1 mm 5 m/s 732 mmHg 88%
    19:00 +10°C° 0 mm 4 m/s 733 mmHg 87%
    20:00 +10°C° 0 mm 3 m/s 733 mmHg 85%
    21:00 +10°C° 0 mm 3 m/s 733 mmHg 84%
    22:00 +9°C° 0 mm 3 m/s 733 mmHg 86%
    23:00 +9°C° 0 mm 3 m/s 734 mmHg 87%

    30 Juin, Dimanche

    Heure Température Précipitation Vent Pression Humidité
    00:00 +9°C° 0 mm 3 m/s 734 mmHg 89%
    01:00 +9°C° 0 mm 3 m/s 734 mmHg 87%
    02:00 +9°C° 0 mm 3 m/s 734 mmHg 85%
    03:00 +9°C° 0 mm 3 m/s 734 mmHg 83%
    04:00 +9°C° 0 mm 3 m/s 734 mmHg 84%
    05:00 +9°C° 0 mm 3 m/s 735 mmHg 84%
    06:00 +9°C° 0 mm 3 m/s 735 mmHg 85%
    07:00 +10°C° 0 mm 3 m/s 735 mmHg 83%
    08:00 +11°C° 0 mm 3 m/s 735 mmHg 82%
    09:00 +11°C° 0 mm 3 m/s 735 mmHg 80%
    10:00 +13°C° 0 mm 3 m/s 736 mmHg 74%
    11:00 +14°C° 0 mm 4 m/s 736 mmHg 69%
    12:00 +15°C° 0 mm 4 m/s 736 mmHg 63%
    13:00 +17°C° 0.1 mm 4 m/s 736 mmHg 62%
    14:00 +17°C° 0.1 mm 4 m/s 737 mmHg 62%
    15:00 +18°C° 0.1 mm 3 m/s 737 mmHg 61%
    16:00 +18°C° 0.2 mm 3 m/s 737 mmHg 63%
    17:00 +18°C° 0.2 mm 3 m/s 737 mmHg 65%
    18:00 +18°C° 0.2 mm 2 m/s 737 mmHg 67%
    19:00 +16°C° 0 mm 2 m/s 737 mmHg 71%
    20:00 +14°C° 0 mm 2 m/s 737 mmHg 74%
    21:00 +13°C° 0 mm 2 m/s 737 mmHg 77%
    22:00 +12°C° 0 mm 2 m/s 738 mmHg 77%
    23:00 +12°C° 0 mm 2 m/s 738 mmHg 77%
    Voir plus